Weather History for Pinedale, WY

Change the Weather History Date:

Thursday, January 10, 2013

  Actual Average (KBPI) Record (KBPI)
Temperature  
Mean Temperature -7 °C -12 °C  
Max Temperature 0 °C -3 °C 6 °C (1983)
Min Temperature -13 °C -20 °C -31 °C (2011)
Degree Days  
Heating Degree Days 45 54  
Month to date heating degree days 540  
Since 1 July heating degree days 4979  
Cooling Degree Days 0 0  
Month to date cooling degree days 0  
Year to date cooling degree days 0  
Moisture  
Dew Point -8 °C    
Average Humidity 84    
Maximum Humidity 100    
Minimum Humidity 60    
Precipitation  
Precipitation 0.00 mm 0.51 mm 0.74 mm (2005)
Month to date precipitation 0.11  
Year to date precipitation 0.11  
Sea Level Pressure  
Sea Level Pressure 1002 hPa    
Wind  
Wind Speed 8 km/h (ESE)    
Max Wind Speed 29 km/h    
Max Gust Speed 39 km/h    
Visibility 13 kilometers    
Events Snow    
T = Trace of Precipitation, MM = Missing Value Source: NWS Daily Summary

Daily Weather History Graph

Daily Weather History Graph

Search for Another Location

Airport:

Trip Planner

Search our weather history database for the weather conditions in past years. The results will help you decide how hot, cold, wet, or windy it might be!

Date:

Astronomy

Jan. 10, 2013 Rise Set
Actual Time 7:48 AM MST 5:05 PM MST
Civil Twilight 7:17 AM MST 5:36 PM MST
Nautical Twilight 6:42 AM MST 6:12 PM MST
Astronomical Twilight 6:08 AM MST 6:46 PM MST
Moon 6:31 AM MST (1/10) 4:17 PM MST (1/10)
Length of Visible Light 10h 19m
Length of Day
9h 16m
Waning Crescent, 2% of the Moon is Illuminated
Jan 10
Waning Crescent
Jan 11
New
Jan 18
First Quarter
Jan 26
Full
Feb 3
Last Quarter

Hourly Weather History & Observations

Time (MST) Temp. Windchill Dew Point Humidity Pressure Visibility Wind Dir Wind Speed Gust Speed Precip Events Conditions
1:15 AM -13.0 °C - -14.0 °C 92% 1011.7 hPa 16.1 km Calm Calm - N/A   Clear
1:35 AM -13.0 °C -17.7 °C -15.0 °C 85% 1011.4 hPa 16.1 km WNW 7.4 km/h / 2.1 m/s - N/A   Clear
1:55 AM -13.0 °C -16.7 °C -14.0 °C 92% 1011.1 hPa 16.1 km WNW 5.6 km/h / 1.5 m/s - N/A   Clear
2:15 AM -13.0 °C -16.7 °C -13.0 °C 100% 1010.7 hPa 16.1 km WNW 5.6 km/h / 1.5 m/s - N/A   Clear
2:35 AM -13.0 °C -16.7 °C -13.0 °C 100% 1010.7 hPa 16.1 km West 5.6 km/h / 1.5 m/s - N/A   Clear
2:55 AM -12.0 °C - -13.0 °C 92% 1010.0 hPa 16.1 km Calm Calm - N/A   Clear
3:15 AM -12.0 °C -15.5 °C -13.0 °C 92% 1009.7 hPa 16.1 km West 5.6 km/h / 1.5 m/s - N/A   Clear
3:35 AM -12.0 °C -15.5 °C -13.0 °C 92% 1009.0 hPa 16.1 km West 5.6 km/h / 1.5 m/s - N/A   Clear
3:55 AM -12.0 °C -16.5 °C -12.0 °C 100% 1008.7 hPa 16.1 km NW 7.4 km/h / 2.1 m/s - N/A   Scattered Clouds
4:15 AM -11.0 °C - -12.0 °C 92% 1008.4 hPa 16.1 km Calm Calm - N/A   Mostly Cloudy
4:35 AM -10.0 °C - -11.0 °C 93% 1008.0 hPa 16.1 km Calm Calm - N/A   Scattered Clouds
4:55 AM -11.0 °C - -12.0 °C 92% 1007.3 hPa 16.1 km Calm Calm - N/A   Clear
5:35 AM -11.0 °C -15.4 °C -12.0 °C 92% 1007.3 hPa 16.1 km West 7.4 km/h / 2.1 m/s - N/A   Scattered Clouds
5:55 AM -11.0 °C - -12.0 °C 92% 1006.7 hPa 16.1 km Calm Calm - N/A   Scattered Clouds
6:15 AM -11.0 °C - -11.0 °C 100% 1007.0 hPa 16.1 km Calm Calm - N/A   Scattered Clouds
6:35 AM -11.0 °C - -11.0 °C 100% 1007.3 hPa 16.1 km Calm Calm - N/A   Overcast
6:55 AM -11.0 °C -14.4 °C -11.0 °C 100% 1006.7 hPa 16.1 km East 5.6 km/h / 1.5 m/s - N/A   Overcast
7:35 AM -9.0 °C -15.4 °C -9.0 °C 100% 1006.0 hPa 16.1 km ESE 14.8 km/h / 4.1 m/s - N/A   Overcast
7:55 AM -8.0 °C -13.7 °C -9.0 °C 93% 1005.6 hPa 16.1 km East 13.0 km/h / 3.6 m/s - N/A   Scattered Clouds
8:15 AM -7.0 °C -10.7 °C -9.0 °C 86% 1005.3 hPa 16.1 km ESE 7.4 km/h / 2.1 m/s - N/A   Clear
8:55 AM -7.0 °C -9.8 °C -9.0 °C 86% 1005.3 hPa 16.1 km West 5.6 km/h / 1.5 m/s - N/A   Mostly Cloudy
9:15 AM -6.0 °C - -8.0 °C 86% 1005.0 hPa 16.1 km Calm Calm - N/A   Overcast
9:35 AM -6.0 °C -8.7 °C -7.0 °C 93% 1004.6 hPa 16.1 km East 5.6 km/h / 1.5 m/s - N/A   Overcast
9:55 AM -5.0 °C -9.0 °C -7.0 °C 86% 1004.6 hPa 16.1 km East 9.3 km/h / 2.6 m/s - N/A   Overcast
10:15 AM -3.0 °C -6.0 °C -7.0 °C 74% 1004.6 hPa 16.1 km SE 7.4 km/h / 2.1 m/s - N/A   Overcast
10:35 AM -3.0 °C -5.2 °C -7.0 °C 74% 1004.3 hPa 16.1 km ESE 5.6 km/h / 1.5 m/s - N/A   Overcast
10:55 AM -2.0 °C -4.1 °C -7.0 °C 69% 1003.6 hPa 16.1 km ESE 5.6 km/h / 1.5 m/s - N/A   Overcast
11:15 AM -1.0 °C -4.3 °C -6.0 °C 69% 1003.3 hPa 16.1 km East 9.3 km/h / 2.6 m/s - N/A   Overcast
11:35 AM -1.0 °C -4.3 °C -6.0 °C 69% 1002.6 hPa 16.1 km ESE 9.3 km/h / 2.6 m/s - N/A   Overcast
11:55 AM 0.0 °C -4.0 °C -6.0 °C 64% 1002.3 hPa 16.1 km SE 13.0 km/h / 3.6 m/s - N/A   Overcast
12:15 PM 0.0 °C -4.7 °C -7.0 °C 60% 1001.6 hPa 16.1 km ESE 16.7 km/h / 4.6 m/s - N/A   Overcast
12:35 PM 0.0 °C -5.3 °C -6.0 °C 64% 1000.9 hPa 16.1 km ESE 20.4 km/h / 5.7 m/s - N/A   Overcast
12:55 PM 0.0 °C -5.3 °C -6.0 °C 64% 1000.6 hPa 16.1 km ESE 20.4 km/h / 5.7 m/s - N/A   Overcast
1:15 PM 0.0 °C -5.0 °C -6.0 °C 64% 1000.2 hPa 16.1 km SE 18.5 km/h / 5.1 m/s - N/A   Overcast
1:35 PM 0.0 °C -5.5 °C -6.0 °C 64% 1000.2 hPa 16.1 km SSE 22.2 km/h / 6.2 m/s - N/A   Overcast
1:55 PM 0.0 °C -4.7 °C -6.0 °C 64% 1000.2 hPa 16.1 km SSE 16.7 km/h / 4.6 m/s - N/A   Overcast
2:15 PM 0.0 °C -4.0 °C -6.0 °C 64% 1000.2 hPa 16.1 km SSE 13.0 km/h / 3.6 m/s - N/A   Overcast
2:35 PM 0.0 °C -3.6 °C -6.0 °C 64% 1000.2 hPa 16.1 km SSE 11.1 km/h / 3.1 m/s - N/A   Overcast
2:55 PM 0.0 °C -3.1 °C -6.0 °C 64% 999.9 hPa 11.3 km ESE 9.3 km/h / 2.6 m/s - N/A   Overcast
3:15 PM 0.0 °C -4.0 °C -6.0 °C 64% 999.2 hPa 16.1 km ESE 13.0 km/h / 3.6 m/s - N/A   Overcast
3:35 PM 0.0 °C -4.4 °C -6.0 °C 64% 999.2 hPa 16.1 km ESE 14.8 km/h / 4.1 m/s - N/A   Mostly Cloudy
3:55 PM -1.0 °C -4.8 °C -7.0 °C 64% 998.5 hPa 16.1 km East 11.1 km/h / 3.1 m/s - N/A   Mostly Cloudy
4:15 PM -1.0 °C -4.3 °C -6.0 °C 69% 998.5 hPa 16.1 km ESE 9.3 km/h / 2.6 m/s - N/A   Mostly Cloudy
4:35 PM -1.0 °C -3.0 °C -6.0 °C 69% 998.2 hPa 16.1 km SE 5.6 km/h / 1.5 m/s - N/A   Overcast
4:55 PM -2.0 °C -4.9 °C -6.0 °C 74% 997.9 hPa 16.1 km ESE 7.4 km/h / 2.1 m/s - N/A   Overcast
5:15 PM -2.0 °C -4.1 °C -6.0 °C 74% 997.9 hPa 16.1 km SSE 5.6 km/h / 1.5 m/s - N/A   Overcast
5:35 PM -1.0 °C -4.8 °C -6.0 °C 69% 997.9 hPa 16.1 km SSW 11.1 km/h / 3.1 m/s - N/A   Overcast
5:55 PM -2.0 °C -4.1 °C -3.0 °C 93% 997.9 hPa 1.2 km WSW 5.6 km/h / 1.5 m/s - N/A Snow Snow
6:15 PM -3.0 °C - -3.0 °C 100% 997.5 hPa 6.4 km Calm Calm - N/A Snow Light Snow
6:35 PM -3.0 °C -6.7 °C -3.0 °C 100% 997.2 hPa 2.4 km East 9.3 km/h / 2.6 m/s - N/A Snow Light Snow
6:55 PM -3.0 °C -5.2 °C -3.0 °C 100% 997.2 hPa 1.6 km East 5.6 km/h / 1.5 m/s - N/A Snow Snow
7:15 PM -3.0 °C -6.7 °C -3.0 °C 100% 996.5 hPa 1.6 km East 9.3 km/h / 2.6 m/s - N/A Snow Snow
7:35 PM -3.0 °C -7.2 °C -3.0 °C 100% 996.5 hPa 1.2 km East 11.1 km/h / 3.1 m/s - N/A Snow Snow
7:55 PM -3.0 °C -7.2 °C -3.0 °C 100% 996.2 hPa 4.8 km East 11.1 km/h / 3.1 m/s - N/A Snow Light Snow
8:15 PM -3.0 °C -9.3 °C -5.0 °C 86% 995.8 hPa 16.1 km ESE 22.2 km/h / 6.2 m/s - N/A   Overcast
8:35 PM -4.0 °C -10.3 °C -5.0 °C 93% 995.8 hPa 1.6 km ESE 20.4 km/h / 5.7 m/s 27.8 km/h / 7.7 m/s N/A Snow Light Snow
8:55 PM -3.0 °C -10.3 °C -6.0 °C 80% 995.8 hPa 16.1 km SE 29.6 km/h / 8.2 m/s 38.9 km/h / 10.8 m/s N/A   Overcast
9:15 PM -3.0 °C -9.1 °C -6.0 °C 80% 995.8 hPa 8.0 km SE 20.4 km/h / 5.7 m/s - N/A Snow Light Snow
9:35 PM -5.0 °C -11.3 °C -5.0 °C 100% 995.8 hPa 0.8 km ESE 18.5 km/h / 5.1 m/s - N/A Snow Heavy Snow
10:15 PM -5.0 °C -11.3 °C -5.0 °C 100% 995.1 hPa 2.0 km ESE 18.5 km/h / 5.1 m/s - N/A Snow Light Snow
10:55 PM -4.0 °C -10.3 °C -4.0 °C 100% 994.8 hPa 2.0 km ESE 20.4 km/h / 5.7 m/s - N/A Snow Light Snow
11:15 PM -5.0 °C -11.6 °C -5.0 °C 100% 994.5 hPa 1.2 km ESE 20.4 km/h / 5.7 m/s - N/A Snow Light Snow
11:35 PM -5.0 °C -11.3 °C -5.0 °C 100% 994.5 hPa 3.2 km ESE 18.5 km/h / 5.1 m/s - N/A Snow Light Snow
11:55 PM -5.0 °C -10.9 °C -5.0 °C 100% 994.5 hPa 1.6 km ESE 16.7 km/h / 4.6 m/s - N/A Snow Snow